• In Germany
  • List of Countries
  • For 7 days
  • Water Temperature
  • Satellite Maps
  • Weather Map
  • Weather Widgets
  • user-avatar
    Login

    Hourly Weather Uige

    Today, 21 October, Saturday

    Time Temperature Precipitation Wind Pressure Humidity
    00:00 +24°C° 0.1 mm 1 mps 692 mmHg 82%
    01:00 +22°C° 0 mm 1 mps 692 mmHg 87%
    02:00 +22°C° 0 mm 1 mps 692 mmHg 89%
    03:00 +22°C° 0 mm 1 mps 692 mmHg 91%
    04:00 +19°C° 0 mm 0 mps 692 mmHg 94%
    05:00 +22°C° 0 mm 1 mps 692 mmHg 89%
    06:00 +23°C° 0 mm 1 mps 692 mmHg 85%
    07:00 +24°C° 0 mm 1 mps 693 mmHg 81%
    08:00 +28°C° 0 mm 1 mps 693 mmHg 68%
    09:00 +31°C° 0 mm 1 mps 694 mmHg 56%
    10:00 +35°C° 0 mm 1 mps 694 mmHg 44%
    11:00 +34°C° 0 mm 1 mps 693 mmHg 44%
    12:00 +32°C° 0 mm 0 mps 692 mmHg 44%
    13:00 +31°C° 0 mm 0 mps 691 mmHg 45%
    14:00 +32°C° 0 mm 1 mps 691 mmHg 47%
    15:00 +32°C° 0 mm 1 mps 690 mmHg 50%
    16:00 +31°C° 0 mm 2 mps 690 mmHg 52%
    17:00 +29°C° 0.7 mm 1 mps 690 mmHg 60%
    18:00 +27°C° 0.7 mm 1 mps 690 mmHg 68%
    19:00 +26°C° 0.7 mm 1 mps 691 mmHg 76%
    20:00 +25°C° 0.1 mm 1 mps 691 mmHg 79%
    21:00 +24°C° 0.1 mm 1 mps 692 mmHg 83%
    22:00 +24°C° 0.1 mm 2 mps 692 mmHg 86%
    23:00 +23°C° 0 mm 2 mps 692 mmHg 88%

    Tomorrow, 22 October, Sunday

    Time Temperature Precipitation Wind Pressure Humidity
    00:00 +23°C° 0 mm 2 mps 692 mmHg 91%
    01:00 +21°C° 0 mm 2 mps 692 mmHg 93%
    02:00 +21°C° 0 mm 2 mps 692 mmHg 93%
    03:00 +21°C° 0 mm 2 mps 691 mmHg 92%
    04:00 +21°C° 0 mm 2 mps 691 mmHg 92%
    05:00 +21°C° 0 mm 2 mps 692 mmHg 90%
    06:00 +21°C° 0 mm 2 mps 692 mmHg 88%
    07:00 +23°C° 0 mm 2 mps 693 mmHg 87%
    08:00 +25°C° 0.1 mm 2 mps 693 mmHg 76%
    09:00 +28°C° 0.1 mm 2 mps 694 mmHg 66%
    10:00 +31°C° 0.1 mm 1 mps 694 mmHg 55%
    11:00 +32°C° 0.1 mm 1 mps 693 mmHg 49%
    12:00 +34°C° 0.1 mm 1 mps 693 mmHg 44%
    13:00 +36°C° 0.1 mm 1 mps 692 mmHg 38%
    14:00 +34°C° 0 mm 1 mps 691 mmHg 42%
    15:00 +33°C° 0 mm 1 mps 690 mmHg 46%
    16:00 +31°C° 0 mm 1 mps 689 mmHg 51%
    17:00 +30°C° 0.1 mm 1 mps 690 mmHg 56%
    18:00 +28°C° 0.1 mm 1 mps 690 mmHg 60%
    19:00 +27°C° 0.1 mm 1 mps 690 mmHg 65%
    20:00 +26°C° 0 mm 1 mps 691 mmHg 69%
    21:00 +25°C° 0 mm 2 mps 691 mmHg 73%
    22:00 +25°C° 0 mm 2 mps 691 mmHg 77%
    23:00 +24°C° 0 mm 2 mps 691 mmHg 81%

    Day after tomorrow, 23 October, Monday

    Time Temperature Precipitation Wind Pressure Humidity
    00:00 +23°C° 0 mm 1 mps 691 mmHg 85%
    01:00 +22°C° 0 mm 1 mps 691 mmHg 89%
    02:00 +22°C° 0 mm 1 mps 690 mmHg 91%
    03:00 +21°C° 0 mm 1 mps 690 mmHg 93%
    04:00 +21°C° 0 mm 1 mps 690 mmHg 95%
    05:00 +22°C° 0.1 mm 1 mps 690 mmHg 91%
    06:00 +22°C° 0.1 mm 1 mps 691 mmHg 88%
    07:00 +23°C° 0.1 mm 1 mps 691 mmHg 84%
    08:00 +26°C° 0 mm 1 mps 692 mmHg 72%
    09:00 +29°C° 0 mm 1 mps 693 mmHg 59%
    10:00 +33°C° 0 mm 1 mps 693 mmHg 46%
    11:00 +34°C° 0 mm 1 mps 692 mmHg 42%
    12:00 +35°C° 0 mm 1 mps 692 mmHg 38%
    13:00 +36°C° 0 mm 1 mps 691 mmHg 35%
    14:00 +34°C° 2.6 mm 2 mps 690 mmHg 47%
    15:00 +30°C° 2.6 mm 2 mps 689 mmHg 60%
    16:00 +27°C° 2.6 mm 2 mps 688 mmHg 72%
    17:00 +26°C° 4.4 mm 1 mps 689 mmHg 79%
    18:00 +25°C° 4.4 mm 1 mps 689 mmHg 85%
    19:00 +24°C° 4.4 mm 1 mps 690 mmHg 92%
    20:00 +24°C° 0 mm 1 mps 690 mmHg 92%
    21:00 +23°C° 0 mm 1 mps 691 mmHg 93%
    22:00 +23°C° 0 mm 1 mps 691 mmHg 93%
    23:00 +23°C° 0 mm 1 mps 691 mmHg 94%

    24 October, Tuesday

    Time Temperature Precipitation Wind Pressure Humidity
    00:00 +23°C° 0 mm 1 mps 690 mmHg 95%
    01:00 +23°C° 0 mm 1 mps 690 mmHg 96%
    02:00 +23°C° 0 mm 1 mps 690 mmHg 96%
    03:00 +22°C° 0 mm 1 mps 690 mmHg 96%
    04:00 +22°C° 0 mm 1 mps 690 mmHg 96%
    05:00 +22°C° 0.1 mm 1 mps 690 mmHg 95%
    06:00 +23°C° 0.1 mm 1 mps 691 mmHg 94%
    07:00 +23°C° 0.1 mm 1 mps 692 mmHg 93%
    08:00 +25°C° 0 mm 1 mps 692 mmHg 84%
    09:00 +27°C° 0 mm 1 mps 692 mmHg 74%
    10:00 +28°C° 0 mm 1 mps 693 mmHg 65%
    11:00 +30°C° 0.1 mm 1 mps 692 mmHg 60%
    12:00 +31°C° 0.1 mm 2 mps 691 mmHg 56%
    13:00 +32°C° 0.1 mm 2 mps 691 mmHg 51%
    14:00 +31°C° 0.9 mm 1 mps 690 mmHg 58%
    15:00 +30°C° 0.9 mm 1 mps 690 mmHg 65%
    16:00 +28°C° 0.9 mm 1 mps 689 mmHg 73%
    17:00 +27°C° 0.6 mm 1 mps 690 mmHg 79%
    18:00 +25°C° 0.6 mm 1 mps 690 mmHg 85%
    19:00 +24°C° 0.6 mm 1 mps 691 mmHg 91%
    20:00 +23°C° 0.1 mm 1 mps 691 mmHg 93%
    21:00 +23°C° 0.1 mm 1 mps 691 mmHg 94%
    22:00 +23°C° 0.1 mm 1 mps 691 mmHg 95%
    23:00 +23°C° 0.1 mm 1 mps 691 mmHg 96%

    25 October, Wednesday

    Time Temperature Precipitation Wind Pressure Humidity
    00:00 +22°C° 0.1 mm 1 mps 691 mmHg 97%
    01:00 +21°C° 0.1 mm 2 mps 690 mmHg 97%
    02:00 +21°C° 0 mm 2 mps 690 mmHg 97%
    03:00 +21°C° 0 mm 2 mps 690 mmHg 96%
    04:00 +21°C° 0 mm 2 mps 691 mmHg 95%
    05:00 +21°C° 0 mm 2 mps 691 mmHg 94%
    06:00 +23°C° 0 mm 2 mps 692 mmHg 93%
    07:00 +23°C° 0 mm 2 mps 692 mmHg 91%
    08:00 +25°C° 0 mm 2 mps 692 mmHg 80%
    09:00 +27°C° 0 mm 2 mps 693 mmHg 68%
    10:00 +29°C° 0 mm 2 mps 693 mmHg 57%
    11:00 +31°C° 0.1 mm 2 mps 692 mmHg 51%
    12:00 +34°C° 0.1 mm 2 mps 691 mmHg 46%
    13:00 +35°C° 0.1 mm 2 mps 690 mmHg 41%
    14:00 +34°C° 0 mm 2 mps 690 mmHg 45%
    15:00 +32°C° 0 mm 2 mps 689 mmHg 49%
    16:00 +31°C° 0 mm 1 mps 689 mmHg 53%
    17:00 +29°C° 0 mm 1 mps 689 mmHg 57%
    18:00 +28°C° 0 mm 1 mps 690 mmHg 62%
    19:00 +26°C° 0 mm 2 mps 690 mmHg 67%
    20:00 +26°C° 0 mm 2 mps 690 mmHg 71%
    21:00 +25°C° 0 mm 2 mps 691 mmHg 76%
    22:00 +24°C° 0 mm 2 mps 691 mmHg 80%
    23:00 +23°C° 0 mm 2 mps 690 mmHg 82%

    26 October, Thursday

    Time Temperature Precipitation Wind Pressure Humidity
    00:00 +23°C° 0 mm 2 mps 690 mmHg 85%
    01:00 +21°C° 0 mm 2 mps 690 mmHg 87%
    02:00 +22°C° 0 mm 1 mps 690 mmHg 89%
    03:00 +21°C° 0 mm 1 mps 690 mmHg 90%
    04:00 +21°C° 0 mm 1 mps 690 mmHg 92%
    05:00 +21°C° 0 mm 1 mps 691 mmHg 88%
    06:00 +21°C° 0 mm 2 mps 691 mmHg 84%
    07:00 +23°C° 0 mm 2 mps 692 mmHg 81%
    08:00 +25°C° 0 mm 2 mps 692 mmHg 70%
    09:00 +28°C° 0 mm 2 mps 693 mmHg 59%
    10:00 +31°C° 0 mm 2 mps 693 mmHg 47%
    11:00 +32°C° 0 mm 2 mps 692 mmHg 44%
    12:00 +35°C° 0 mm 2 mps 691 mmHg 40%
    13:00 +36°C° 0 mm 2 mps 691 mmHg 36%
    14:00 +35°C° 0 mm 2 mps 690 mmHg 39%
    15:00 +33°C° 0 mm 1 mps 690 mmHg 42%
    16:00 +32°C° 0 mm 1 mps 689 mmHg 45%
    17:00 +31°C° 0 mm 1 mps 689 mmHg 49%
    18:00 +29°C° 0 mm 1 mps 690 mmHg 53%
    19:00 +28°C° 0 mm 1 mps 690 mmHg 56%
    20:00 +26°C° 0 mm 1 mps 690 mmHg 62%
    21:00 +25°C° 0 mm 1 mps 690 mmHg 67%
    22:00 +24°C° 0 mm 2 mps 690 mmHg 72%
    23:00 +23°C° 0 mm 1 mps 690 mmHg 74%
    Show more